Regional Weather Roundup
Issued by NWS

Home | Current Version | Previous Version | Graphics & Text | Print | Product List | Glossary On
Versions: 1 2 3 4 5 6 7 8 9 10 11 12 13 14 15 16 17 18 19 20 21 22 23 24 25 26 27 28 29 30 31 32 33 34 35 36 37 38 39 40 41 42 43 44 45 46 47 48 49 50
000
ASUS45 KCYS 220010
RWRWY

WYOMING REGIONAL WEATHER ROUNDUP
NATIONAL WEATHER SERVICE CHEYENNE WY
500 PM MST SUN DEC 21 2014

NOTE:  "FAIR" INDICATES FEW OR NO CLOUDS BELOW 12,000 FEET
WITH NO SIGNIFICANT WEATHER AND/OR OBSTRUCTIONS TO VISIBILITY.

WYZ001-220100-
YELLOWSTONE NATIONAL PARK

CITY           SKY/WX    TMP DP  RH WIND       PRES   REMARKS
LK YELLOWSTONE   N/A     27  20  75 W12G20    29.70R WCI  17
6HR MIN TEMP:  26; 6HR MAX TEMP:  32; 6HR PCP:  0.07;

W YELLOWSTONE  NOT AVBL

$$
WYZ002>013-054>058-071-098>099-220100-
NORTHERN WYOMING

CITY           SKY/WX    TMP DP  RH WIND       PRES   REMARKS
JACKSON        MOCLDY    37  25  60 N12       29.72R FOG     WCI  30
CODY           MOCLDY    36  30  80 SW7       29.60R WCI  30
GREYBULL       FAIR      35  32  88 NW5       29.58R WCI  31
6HR MIN TEMP:  30; 6HR MAX TEMP:  39; 6HR PCP:  0.05;

WORLAND        MOCLDY    34  33  96 W3        29.58R
6HR MIN TEMP:  28; 6HR MAX TEMP:  36; 6HR PCP:  0.03;

SHERIDAN       CLOUDY    39  27  62 N10       29.51R WCI  32
6HR MIN TEMP:  38; 6HR MAX TEMP:  48; 6HR PCP: TRACE;

BUFFALO        FAIR      43  16  33 NW31G44   29.49F
6HR MIN TEMP:  39; 6HR MAX TEMP:  48; 6HR PCP: TRACE;

GILLETTE       CLOUDY    40  30  67 NW9       29.48R WCI  34
6HR MIN TEMP:  38; 6HR MAX TEMP:  46; 6HR PCP:  0.01;

HULETT           N/A    N/A N/A N/A MISG        N/A
NEWCASTLE      FAIR      34  32  93 N6        29.47R WCI  29

$$
WYZ014>020-022>026-101>103-220100-
CENTRAL WYOMING

CITY           SKY/WX    TMP DP  RH WIND       PRES   REMARKS
BIG PINEY      FLURRIES  35  31  85 NW17G25   29.70R WCI  25
6HR MIN TEMP:  33; 6HR MAX TEMP:  36; 6HR PCP:  0.11;

PINEDALE       LGT SNOW  32  32 100 W20G29    29.71R WCI  20
DUBOIS         NOT AVBL
LANDER         CLOUDY    34  26  72 CALM      29.59R
6HR MIN TEMP:  29; 6HR MAX TEMP:  39;

RIVERTON       FAIR      38  26  62 NW17G38   29.58R WCI  28
6HR MIN TEMP:  26; 6HR MAX TEMP:  40;

CASPER         MOCLDY    39  30  70 W20G26    29.53R WCI  29
6HR MIN TEMP:  37; 6HR MAX TEMP:  41; 6HR PCP: TRACE;

DOUGLAS        LGT RAIN  39  33  79 NW12      29.53R WCI  32
6HR MIN TEMP:  39; 6HR MAX TEMP:  48; 6HR PCP:  0.01;


$$
WYZ021-027>030-104>119-220100-
SOUTHERN WYOMING

CITY           SKY/WX    TMP DP  RH WIND       PRES   REMARKS
EVANSTON       LGT RAIN  35  33  92 W15       29.85R WCI  25
6HR MIN TEMP:  33; 6HR MAX TEMP:  36; 6HR PCP:  0.03;

KEMMERER       FLURRIES  34  32  93 W28G41    29.78R WCI  20
FORT BRIDGER   LGT RAIN  36  36  97 W26G39    29.82R WCI  24
ROCK SPRINGS   LGT RAIN  36  32  85 W35G44    29.72R WCI  22
6HR MIN TEMP:  35; 6HR MAX TEMP:  39; 6HR PCP: TRACE;

DIXON          CLOUDY    37  32  80 W16       29.74R WCI  28
RAWLINS        MOCLDY    36  31  82 W33G44    29.63R WCI  22
6HR MIN TEMP:  33; 6HR MAX TEMP:  37; 6HR PCP:  0.01;

SARATOGA       FAIR      36  32  87 W33G41    29.63R WCI  22
LARAMIE        CLOUDY    36  28  73 W23G30    29.56S WCI  24
6HR MIN TEMP:  31; 6HR MAX TEMP:  38; 6HR PCP: TRACE;

CHEYENNE       CLOUDY    39  31  72 NW14G22   29.55R WCI  31
6HR MIN TEMP:  39; 6HR MAX TEMP:  47; 6HR PCP: TRACE;

TORRINGTON     MOCLDY   N/A N/A N/A NW7       29.48R
PINE BLUFFS    MOCLDY    43  32  65 W30G38    29.52R

$$



USA.gov is the U.S. government's official web portal to all federal, state and local government web resources and services.